Weather History for Goodland, KS

Change the Weather History Date:

Wednesday, November 27, 2013

  Actual Average Record
Temperature  
Mean Temperature 42 °F 34 °F  
Max Temperature 60 °F 47 °F 75 °F (1949)
Min Temperature 23 °F 21 °F -10 °F (1952)
Degree Days  
Heating Degree Days 23 31  
Month to date heating degree days 679 682  
Since 1 July heating degree days 1190 1222  
Cooling Degree Days 0 0  
Month to date cooling degree days 0 0  
Year to date cooling degree days 1181 941  
Moisture  
Dew Point 18 °F    
Average Humidity 47    
Maximum Humidity 74    
Minimum Humidity 19    
Precipitation  
Precipitation 0.00 in 0.02 in 0.95 in (1983)
Month to date precipitation 0.17 0.66  
Year to date precipitation 16.69 19.15  
Snow  
Snow 0.00 in 0.20 in - ()
Month to date snowfall 0.3 4.0  
Since 1 July snowfall 4.3 6.6  
Since 1 September snowfall 4.3 6.6  
Snow Depth 0.00 in    
Sea Level Pressure  
Sea Level Pressure 30.17 in    
Wind  
Wind Speed 12 mph (SW)    
Max Wind Speed 24 mph    
Max Gust Speed 29 mph    
Visibility 10 miles    
Events      
T = Trace of Precipitation, MM = Missing Value Source: NWS Daily Summary

Daily Weather History Graph

Daily Weather History Graph

Search for Another Location

Airport:

Trip Planner

Search our weather history database for the weather conditions in past years. The results will help you decide how hot, cold, wet, or windy it might be!

Date:

Astronomy

Nov. 27, 2013 Rise Set
Actual Time 6:43 AM MST 4:24 PM MST
Civil Twilight 6:14 AM MST 4:54 PM MST
Nautical Twilight 5:41 AM MST 5:27 PM MST
Astronomical Twilight 5:09 AM MST 5:59 PM MST
Moon 12:49 AM MST (11/27) 1:01 PM MST (11/27)
Length of Visible Light 10h 40m
Length of Day
9h 41m
Waning Crescent, 31% of the Moon is Illuminated
Nov 27
Waning Crescent
Dec 2
New
Dec 9
First Quarter
Dec 17
Full
Dec 25
Last Quarter

Hourly Weather History & Observations

Time (MST) Temp. Windchill Dew Point Humidity Pressure Visibility Wind Dir Wind Speed Gust Speed Precip Events Conditions
12:53 AM 24.1 °F 14.4 °F 15.1 °F 69% 30.38 in 10.0 mi SSW 9.2 mph - N/A   Clear
1:53 AM 24.1 °F 13.1 °F 15.1 °F 69% 30.35 in 10.0 mi SSW 11.5 mph - N/A   Clear
2:53 AM 25.0 °F 12.6 °F 16.0 °F 69% 30.32 in 10.0 mi SSW 15.0 mph - N/A   Clear
3:53 AM 24.1 °F 12.0 °F 15.1 °F 69% 30.31 in 10.0 mi SSW 13.8 mph - N/A   Clear
4:53 AM 24.1 °F 12.0 °F 17.1 °F 75% 30.32 in 10.0 mi SSW 13.8 mph - N/A   Clear
5:53 AM 24.1 °F 11.0 °F 18.0 °F 77% 30.30 in 10.0 mi SSW 16.1 mph - N/A   Clear
6:53 AM 24.1 °F 12.5 °F 18.0 °F 77% 30.31 in 10.0 mi SSW 12.7 mph - N/A   Clear
7:53 AM 28.9 °F 18.2 °F 19.9 °F 69% 30.30 in 10.0 mi SSW 13.8 mph - N/A   Clear
8:53 AM 37.0 °F 28.5 °F 23.0 °F 57% 30.25 in 10.0 mi SW 13.8 mph - N/A   Clear
9:53 AM 46.9 °F - 24.1 °F 41% 30.20 in 10.0 mi SW 16.1 mph - N/A   Clear
10:53 AM 53.1 °F - 19.9 °F 27% 30.14 in 10.0 mi SW 20.7 mph 28.8 mph N/A   Clear
11:53 AM 55.9 °F - 19.9 °F 25% 30.09 in 10.0 mi SW 18.4 mph 26.5 mph N/A   Clear
12:53 PM 59.0 °F - 19.0 °F 21% 30.06 in 10.0 mi SW 17.3 mph - N/A   Clear
1:53 PM 60.1 °F - 19.9 °F 21% 30.03 in 10.0 mi SW 15.0 mph - N/A   Clear
2:53 PM 60.1 °F - 17.1 °F 19% 30.03 in 10.0 mi WSW 11.5 mph - N/A   Clear
3:53 PM 55.9 °F - 18.0 °F 23% 30.04 in 10.0 mi SW 9.2 mph - N/A   Clear
4:53 PM 50.0 °F - 18.0 °F 28% 30.06 in 10.0 mi SW 9.2 mph - N/A   Clear
5:53 PM 48.0 °F - 18.0 °F 30% 30.07 in 10.0 mi SW 11.5 mph - N/A   Clear
6:53 PM 39.9 °F 33.4 °F 17.1 °F 40% 30.11 in 10.0 mi NW 10.4 mph - N/A   Clear
7:53 PM 36.0 °F 31.1 °F 17.1 °F 46% 30.11 in 10.0 mi West 5.8 mph - N/A   Clear
8:53 PM 30.9 °F 23.5 °F 17.1 °F 57% 30.11 in 10.0 mi West 8.1 mph - N/A   Clear
9:53 PM 30.9 °F 23.5 °F 17.1 °F 57% 30.10 in 10.0 mi West 8.1 mph - N/A   Clear
10:53 PM 30.0 °F 24.1 °F 17.1 °F 59% 30.12 in 10.0 mi WNW 5.8 mph - N/A   Clear
11:53 PM 28.0 °F 20.8 °F 17.1 °F 63% 30.13 in 10.0 mi NW 6.9 mph - N/A   Clear